period_start,C,m1,H,J0,J1,J2,J3,J4,J5,JA,JB,JC,JD,JJ,JK,JN,#
2017-10-19 00:02:52,0.03,0.36,0.00,17.33,20.81,24.14,14.43,47.49,1030.78,2055.81,3369.01,3061.00,3433.97,599.74,615.90,45.66,0000 0000 0000 0000 000000
2017-10-19 00:07:54,0.01,0.36,0.00,17.34,20.79,24.14,14.42,47.50,1030.78,2055.90,3369.04,3060.99,3433.94,600.18,616.22,45.72,0000 0000 0000 0000 000000
2017-10-19 00:12:55,-0.00,0.36,0.00,17.34,20.79,24.11,14.49,47.58,1030.78,2055.89,3369.04,3060.99,3433.89,599.92,615.89,45.77,0000 0000 0000 0000 000000
2017-10-19 00:17:56,0.00,0.36,0.00,17.31,20.77,24.11,14.48,47.47,1030.77,2055.96,3369.02,3060.99,3433.87,599.84,616.03,45.82,0000 0000 0000 0000 000000
2017-10-19 00:22:57,-0.00,0.36,0.00,17.26,20.77,24.10,14.34,47.50,1030.77,2055.97,3369.00,3060.99,3433.75,599.93,616.27,45.87,0000 0000 0000 0000 000000
2017-10-19 00:27:58,0.00,0.36,0.00,17.28,20.75,24.06,14.43,47.53,1030.76,2055.98,3369.00,3060.99,3433.80,599.87,616.09,45.92,0000 0000 0000 0000 000000
2017-10-19 00:32:59,0.00,0.36,0.00,17.27,20.74,24.08,14.42,47.64,1030.71,2055.98,3368.98,3060.98,3433.38,600.17,616.38,45.97,0000 0000 0000 0000 000000
2017-10-19 00:38:00,-0.00,0.36,0.00,17.26,20.74,24.05,14.49,47.48,1030.69,2055.98,3368.95,3060.98,3433.28,600.46,616.63,46.02,0000 0000 0000 0000 000000
2017-10-19 00:43:02,0.00,0.36,0.00,17.26,20.72,24.07,14.46,47.57,1030.62,2055.99,3368.82,3060.98,3433.21,600.16,616.17,46.07,0000 0000 0000 0000 000000
2017-10-19 00:48:03,0.01,0.36,0.00,17.23,20.72,24.07,14.45,47.67,1030.58,2055.99,3368.45,3060.96,3433.14,600.08,616.32,46.12,0000 0000 0000 0000 000000
2017-10-19 00:53:05,-0.00,0.37,0.00,17.24,20.71,24.02,14.43,47.55,1030.63,2055.99,3368.12,3060.97,3433.08,599.99,616.27,46.17,0000 0000 0000 0000 000000
2017-10-19 00:58:06,0.00,0.37,0.00,17.26,20.69,24.00,14.46,47.51,1030.67,2055.99,3368.06,3060.97,3433.12,599.87,615.96,46.22,0000 0000 0000 0000 000000
2017-10-19 01:03:07,0.00,0.37,0.00,17.22,20.69,23.99,14.38,47.58,1030.72,2055.99,3368.01,3060.95,3433.05,600.00,616.41,46.27,0000 0000 0000 0000 000000
2017-10-19 01:08:08,0.00,0.37,0.00,17.20,20.68,24.01,14.34,47.58,1030.71,2055.99,3367.99,3060.84,3433.02,599.84,616.20,46.32,0000 0000 0000 0000 000000
2017-10-19 01:13:10,0.00,0.37,0.00,17.22,20.67,24.00,14.43,47.48,1030.68,2055.99,3367.98,3060.74,3433.01,600.34,616.61,46.37,0000 0000 0000 0000 000000
2017-10-19 01:18:11,-0.00,0.37,0.00,17.21,20.67,23.99,14.45,47.53,1030.51,2056.00,3367.98,3060.67,3433.02,599.77,616.03,46.42,0000 0000 0000 0000 000000
2017-10-19 01:23:13,0.00,0.37,0.00,17.25,20.65,23.94,14.44,47.55,1030.44,2056.01,3367.99,3060.89,3433.02,600.04,616.14,46.47,0000 0000 0000 0000 000000
2017-10-19 01:28:14,0.00,0.37,0.00,17.19,20.64,23.91,14.45,47.49,1030.55,2056.03,3367.97,3060.90,3433.01,600.08,616.09,46.52,0000 0000 0000 0000 000000
2017-10-19 01:33:15,0.01,0.37,0.00,17.22,20.64,23.90,14.43,47.51,1030.55,2056.03,3367.92,3060.68,3433.01,599.81,616.05,46.57,0000 0000 0000 0000 000000
2017-10-19 01:38:17,0.01,0.37,0.00,17.23,20.63,23.92,14.42,47.48,1030.53,2056.03,3367.55,3060.41,3433.00,600.07,616.35,46.63,0000 0000 0000 0000 000000
2017-10-19 01:43:18,-0.00,0.37,0.00,17.21,20.62,23.92,14.45,47.48,1030.42,2056.04,3367.24,3060.41,3433.00,600.02,616.16,46.68,0000 0000 0000 0000 000000
2017-10-19 01:48:19,0.01,0.37,0.00,17.22,20.62,23.94,14.49,47.50,1030.37,2056.05,3367.02,3060.11,3433.00,600.19,616.41,46.73,0000 0000 0000 0000 000000
2017-10-19 01:53:20,0.01,0.37,0.00,17.20,20.62,23.90,14.35,47.44,1030.46,2056.16,3366.99,3060.05,3433.00,599.73,616.01,46.78,0000 0000 0000 0000 000000
2017-10-19 01:58:22,0.02,0.37,0.00,17.18,20.62,23.83,14.44,47.51,1030.48,2056.35,3366.97,3060.03,3433.00,600.11,616.44,46.83,0000 0000 0000 0000 000000
2017-10-19 02:03:23,0.00,0.37,0.00,17.21,20.62,23.89,14.32,47.45,1030.60,2056.38,3366.96,3060.03,3432.99,600.10,616.37,46.88,0000 0000 0000 0000 000000
2017-10-19 02:08:24,0.02,0.37,0.00,17.23,20.62,23.88,14.33,47.54,1030.71,2056.49,3366.63,3060.00,3432.97,599.82,616.09,46.93,0000 0000 0000 0000 000000
2017-10-19 02:13:25,0.04,0.37,0.00,17.21,20.62,23.84,14.43,47.49,1030.74,2056.89,3366.01,3060.00,3432.93,599.74,615.96,46.98,0000 0000 0000 0000 000000
2017-10-19 02:18:27,0.00,0.37,0.00,17.22,20.62,23.82,14.41,47.43,1030.72,2056.92,3366.00,3059.98,3432.60,600.07,616.44,47.03,0000 0000 0000 0000 000000
2017-10-19 02:23:28,0.00,0.37,0.00,17.22,20.62,23.77,14.39,47.43,1030.75,2056.92,3366.00,3059.97,3432.33,600.12,616.45,47.08,0000 0000 0000 0000 000000
2017-10-19 02:28:30,0.00,0.37,0.00,17.25,20.62,23.84,14.39,47.48,1030.75,2056.88,3365.94,3059.92,3432.07,600.01,616.23,47.13,0000 0000 0000 0000 000000
2017-10-19 02:33:31,-0.00,0.37,0.00,17.23,20.62,23.71,14.41,47.57,1030.78,2056.81,3365.76,3059.57,3432.01,599.98,616.12,47.18,0000 0000 0000 0000 000000
2017-10-19 02:38:32,0.02,0.37,0.00,17.25,20.62,23.78,14.48,47.54,1030.78,2056.88,3365.45,3059.38,3432.01,599.98,616.32,47.23,0000 0000 0000 0000 000000
2017-10-19 02:43:33,0.01,0.38,0.00,17.28,20.63,23.78,14.44,47.50,1030.78,2056.95,3365.18,3059.22,3432.00,600.31,616.44,47.28,0000 0000 0000 0000 000000
2017-10-19 02:48:35,-0.01,0.38,0.00,17.26,20.64,23.69,14.45,47.60,1030.78,2056.81,3365.03,3059.05,3431.99,599.88,616.01,47.33,0000 0000 0000 0000 000000
2017-10-19 02:53:36,-0.04,0.37,0.00,17.22,20.64,23.80,14.38,47.60,1030.78,2056.43,3365.04,3059.02,3431.87,599.81,616.08,47.38,0000 0000 0000 0000 000000
2017-10-19 02:58:37,-0.00,0.37,0.00,17.27,20.64,23.80,14.39,47.65,1030.77,2056.19,3365.01,3059.01,3431.54,600.25,616.43,47.43,0000 0000 0000 0000 000000
2017-10-19 03:03:38,-0.00,0.37,0.00,17.25,20.64,23.82,14.39,47.43,1030.77,2056.10,3365.01,3059.00,3431.21,599.72,616.01,47.48,0000 0000 0000 0000 000000
2017-10-19 03:08:39,0.00,0.37,0.00,17.26,20.64,23.76,14.43,47.48,1030.76,2056.10,3365.00,3059.00,3431.14,600.20,616.35,47.54,0000 0000 0000 0000 000000
2017-10-19 03:13:41,-0.01,0.37,0.00,17.28,20.64,23.77,14.40,47.48,1030.73,2056.08,3364.99,3058.99,3431.02,600.09,616.26,47.59,0000 0000 0000 0000 000000
2017-10-19 03:18:42,-0.00,0.37,0.00,17.28,20.64,23.78,14.34,47.46,1030.70,2056.04,3364.99,3058.99,3431.00,599.80,616.07,47.64,0000 0000 0000 0000 000000
2017-10-19 03:23:43,0.00,0.37,0.00,17.30,20.64,23.78,14.40,47.40,1030.70,2056.04,3364.99,3058.98,3431.00,600.08,616.15,47.69,0000 0000 0000 0000 000000
2017-10-19 03:28:44,0.00,0.37,0.00,17.30,20.64,23.73,14.36,47.39,1030.74,2056.02,3364.90,3058.96,3431.00,599.93,616.02,47.74,0000 0000 0000 0000 000000
2017-10-19 03:33:46,0.01,0.37,0.00,17.29,20.64,23.76,14.38,47.46,1030.75,2056.03,3364.49,3058.94,3430.98,599.94,616.17,47.79,0000 0000 0000 0000 000000
2017-10-19 03:38:47,0.01,0.37,0.00,17.28,20.64,23.73,14.43,47.63,1030.76,2056.02,3364.07,3058.69,3430.93,600.01,616.16,47.84,0000 0000 0000 0000 000000
2017-10-19 03:43:48,0.00,0.37,0.00,17.29,20.64,23.77,14.47,47.48,1030.77,2056.03,3364.00,3058.62,3430.83,600.35,616.55,47.89,0000 0000 0000 0000 000000
2017-10-19 03:48:50,0.02,0.37,0.00,17.29,20.64,23.77,14.35,47.48,1030.78,2056.02,3364.00,3058.17,3430.37,599.69,615.96,47.94,0000 0000 0000 0000 000000
2017-10-19 03:53:51,0.01,0.38,0.00,17.28,20.64,23.76,14.40,47.50,1030.78,2056.02,3363.75,3058.04,3430.07,600.19,616.44,47.99,0000 0000 0000 0000 000000
2017-10-19 03:58:53,0.00,0.38,0.00,17.31,20.64,23.84,14.35,47.42,1030.78,2056.04,3363.49,3058.01,3430.04,599.75,615.94,48.04,0000 0000 0000 0000 000000
2017-10-19 04:03:54,0.00,0.38,0.00,17.32,20.64,23.75,14.35,47.37,1030.78,2056.01,3363.10,3058.00,3430.00,600.10,616.23,48.09,0000 0000 0000 0000 000000
2017-10-19 04:08:55,0.00,0.38,0.00,17.27,20.64,23.78,14.39,47.47,1030.78,2056.00,3363.04,3058.00,3430.00,599.90,616.16,48.14,0000 0000 0000 0000 000000
2017-10-19 04:13:57,0.00,0.38,0.00,17.30,20.64,23.80,14.41,47.43,1030.78,2056.02,3363.00,3058.00,3430.00,599.86,616.02,48.19,0000 0000 0000 0000 000000
2017-10-19 04:18:58,0.00,0.38,0.00,17.28,20.64,23.77,14.38,47.49,1030.78,2056.01,3362.97,3057.98,3429.99,600.00,616.23,48.24,0000 0000 0000 0000 000000
2017-10-19 04:23:59,0.00,0.38,0.00,17.29,20.64,23.79,14.35,47.40,1030.78,2056.02,3362.88,3057.97,3429.97,599.64,615.76,48.29,0000 0000 0000 0000 000000
2017-10-19 04:29:01,0.00,0.38,0.00,17.32,20.64,23.75,14.46,47.59,1030.78,2056.02,3362.71,3057.98,3429.96,599.82,615.85,48.34,0000 0000 0000 0000 000000
2017-10-19 04:34:02,0.01,0.38,0.00,17.26,20.64,23.68,14.44,47.58,1030.78,2056.04,3362.51,3057.98,3429.95,600.23,616.67,48.39,0000 0000 0000 0000 000000
2017-10-19 04:39:03,0.01,0.38,0.00,17.29,20.64,23.73,14.30,47.42,1030.78,2056.06,3362.07,3057.93,3429.95,599.42,615.54,48.45,0000 0000 0000 0000 000000
2017-10-19 04:44:05,0.00,0.38,0.00,17.35,20.64,23.71,14.35,47.44,1030.78,2056.10,3362.00,3057.82,3429.77,600.01,616.11,48.50,0000 0000 0000 0000 000000
2017-10-19 04:49:06,0.01,0.38,0.00,17.31,20.64,23.67,14.35,47.33,1030.78,2056.08,3362.01,3057.55,3429.37,599.85,615.94,48.55,0000 0000 0000 0000 000000
2017-10-19 04:54:07,-0.00,0.38,0.00,17.32,20.64,23.68,14.40,47.49,1030.78,2056.03,3362.01,3057.41,3429.11,600.07,616.16,48.60,0000 0000 0000 0000 000000
2017-10-19 04:59:08,0.01,0.38,0.00,17.37,20.64,23.68,14.39,47.45,1030.78,2056.04,3362.00,3057.28,3429.11,600.11,616.16,48.65,0000 0000 0000 0000 000000
2017-10-19 05:04:09,0.00,0.38,0.00,17.33,20.65,23.70,14.43,47.45,1030.78,2056.01,3362.00,3057.13,3429.05,599.95,616.04,48.70,0000 0000 0000 0000 000000
2017-10-19 05:09:11,0.00,0.38,0.00,17.37,20.65,23.70,14.43,47.49,1030.78,2056.02,3361.99,3057.06,3429.01,600.09,616.16,48.75,0000 0000 0000 0000 000000
2017-10-19 05:14:12,-0.00,0.38,0.00,17.34,20.66,23.70,14.35,47.33,1030.78,2056.01,3361.98,3057.01,3429.00,600.24,616.28,48.80,0000 0000 0000 0000 000000
2017-10-19 05:19:13,0.00,0.38,0.00,17.35,20.67,23.69,14.45,47.54,1030.78,2056.02,3361.98,3057.02,3429.00,600.16,616.26,48.85,0000 0000 0000 0000 000000
2017-10-19 05:24:14,-0.00,0.38,0.00,17.39,20.67,23.66,14.36,47.34,1030.81,2056.01,3361.98,3057.03,3429.00,600.15,615.96,48.90,0000 0000 0000 0000 000000
2017-10-19 05:29:16,0.00,0.38,0.00,17.37,20.67,23.63,14.33,47.28,1030.85,2056.01,3361.94,3057.00,3429.00,600.07,616.16,48.95,0000 0000 0000 0000 000000
2017-10-19 05:34:17,0.00,0.38,0.00,17.38,20.67,23.67,14.41,47.40,1030.87,2056.01,3361.75,3057.00,3428.99,599.97,615.98,49.00,0000 0000 0000 0000 000000
2017-10-19 05:39:18,0.00,0.38,0.00,17.39,20.67,23.67,14.51,47.35,1030.83,2056.00,3361.21,3057.00,3428.98,600.39,616.45,49.05,0000 0000 0000 0000 000000
2017-10-19 05:44:19,0.00,0.38,0.00,17.33,20.67,23.75,14.38,47.45,1030.82,2056.00,3361.04,3056.99,3428.94,599.89,615.96,49.10,0000 0000 0000 0000 000000
2017-10-19 05:49:21,0.00,0.38,0.00,17.37,20.67,23.75,14.37,47.46,1030.85,2056.00,3361.02,3056.99,3428.62,599.97,615.88,49.15,0000 0000 0000 0000 000000
2017-10-19 05:54:22,0.01,0.38,0.00,17.33,20.67,23.77,14.43,47.38,1030.90,2056.00,3361.01,3056.98,3428.32,600.17,616.28,49.20,0000 0000 0000 0000 000000
2017-10-19 05:59:23,0.00,0.38,0.00,17.34,20.67,23.73,14.40,47.45,1030.94,2056.00,3361.00,3056.98,3428.09,599.95,616.19,49.25,0000 0000 0000 0000 000000
2017-10-19 06:04:24,0.00,0.38,0.00,17.35,20.67,23.78,14.37,47.46,1030.95,2056.00,3360.98,3056.98,3428.09,600.06,616.26,49.30,0000 0000 0000 0000 000000
2017-10-19 06:09:26,0.00,0.38,0.00,17.32,20.67,23.77,14.38,47.52,1030.87,2056.00,3360.94,3056.83,3428.02,599.76,616.04,49.36,0000 0000 0000 0000 000000
2017-10-19 06:14:27,0.00,0.38,0.00,17.34,20.67,23.79,14.38,47.37,1030.85,2056.00,3360.79,3056.75,3428.01,599.85,616.03,49.41,0000 0000 0000 0000 000000
2017-10-19 06:19:28,0.00,0.38,0.00,17.32,20.67,23.76,14.40,47.48,1030.83,2056.00,3360.71,3056.75,3428.01,600.36,616.58,49.46,0000 0000 0000 0000 000000
2017-10-19 06:24:29,0.00,0.38,0.00,17.30,20.67,23.82,14.33,47.38,1030.82,2056.00,3360.34,3056.63,3428.01,599.62,615.88,49.51,0000 0000 0000 0000 000000
2017-10-19 06:29:30,0.01,0.38,0.00,17.33,20.67,23.83,14.41,47.54,1030.84,2056.00,3360.20,3056.58,3428.01,599.85,615.94,49.56,0000 0000 0000 0000 000000
2017-10-19 06:34:32,-0.02,0.38,0.00,17.30,20.67,23.79,14.42,47.33,1030.86,2056.00,3360.61,3056.57,3428.00,599.82,616.06,49.61,0000 0000 0000 0000 000000
2017-10-19 06:39:33,-0.00,0.38,0.00,17.30,20.67,23.83,14.44,47.42,1030.85,2056.00,3360.95,3056.80,3427.99,600.10,616.34,49.66,0000 0000 0000 0000 000000
2017-10-19 06:44:34,0.01,0.38,0.00,17.32,20.67,23.86,14.41,47.40,1030.81,2056.00,3360.46,3056.62,3427.99,600.06,616.21,49.71,0000 0000 0000 0000 000000
2017-10-19 06:49:35,0.01,0.38,0.00,17.29,20.67,23.88,14.35,47.34,1030.81,2056.00,3360.04,3056.24,3427.99,599.50,615.75,49.76,0000 0000 0000 0000 000000
2017-10-19 06:54:37,-0.01,0.38,0.00,17.32,20.67,23.92,14.49,47.49,1030.89,2056.00,3360.53,3056.15,3427.97,600.36,616.64,49.81,0000 0000 0000 0000 000000
2017-10-19 06:59:38,0.00,0.38,0.00,17.26,20.67,23.91,14.43,47.48,1031.10,2055.98,3360.97,3056.22,3427.76,599.87,616.33,49.86,0000 0000 0000 0000 000000
2017-10-19 07:04:39,0.01,0.38,0.00,17.26,20.67,23.94,14.45,47.42,1031.21,2055.98,3360.62,3056.06,3427.72,600.18,616.71,49.91,0000 0000 0000 0000 000000
2017-10-19 07:09:41,0.00,0.38,0.00,17.27,20.66,23.94,14.46,47.42,1031.25,2055.98,3360.16,3056.05,3427.62,600.13,616.60,49.96,0000 0000 0000 0000 000000
2017-10-19 07:14:42,0.00,0.38,0.00,17.22,20.64,23.95,14.45,47.51,1031.25,2055.97,3360.05,3056.03,3427.44,599.76,616.36,50.01,0000 0000 0000 0000 000000
2017-10-19 07:19:44,-0.00,0.38,0.00,17.23,20.64,24.00,14.43,47.58,1031.25,2055.97,3360.01,3056.03,3427.61,600.05,616.64,50.06,0000 0000 0000 0000 000000
2017-10-19 07:24:45,0.00,0.38,0.00,17.18,20.63,23.98,14.45,47.42,1031.26,2055.97,3360.01,3056.02,3427.74,600.04,616.69,50.11,0000 0000 0000 0000 000000
2017-10-19 07:29:47,0.00,0.38,0.00,17.22,20.62,23.98,14.50,47.52,1031.26,2055.99,3360.00,3056.03,3427.86,600.32,616.92,50.16,0000 0000 0000 0000 000000
2017-10-19 07:34:48,-0.00,0.38,0.00,17.23,20.62,23.91,14.47,47.41,1031.26,2055.99,3360.01,3056.08,3427.90,600.26,616.90,50.21,0000 0000 0000 0000 000000
2017-10-19 07:39:49,-0.00,0.38,0.00,17.14,20.59,23.92,14.50,47.41,1031.26,2055.99,3360.01,3056.12,3427.94,600.01,616.85,50.27,0000 0000 0000 0000 000000
2017-10-19 07:44:50,-0.00,0.38,0.00,17.19,20.59,23.95,14.42,47.49,1031.27,2055.99,3360.01,3056.16,3427.96,600.24,617.13,50.32,0000 0000 0000 0000 000000
2017-10-19 07:49:51,-0.00,0.38,0.00,17.18,20.58,23.88,14.49,47.42,1031.27,2055.99,3360.01,3056.39,3427.97,599.99,616.79,50.37,0000 0000 0000 0000 000000
2017-10-19 07:54:53,-0.00,0.38,0.00,17.16,20.57,23.91,14.38,47.36,1031.27,2055.99,3360.01,3056.32,3427.98,599.88,616.70,50.42,0000 0000 0000 0000 000000
2017-10-19 07:59:54,-0.00,0.38,0.00,17.19,20.56,23.90,14.44,47.51,1031.27,2055.99,3360.01,3056.34,3427.93,599.99,616.49,50.47,0000 0000 0000 0000 000000
2017-10-19 08:04:55,-0.03,0.38,0.00,17.15,20.54,23.88,14.43,47.43,1031.27,2055.99,3360.60,3056.78,3427.93,599.99,616.76,50.52,0000 0000 0000 0000 000000
2017-10-19 08:09:57,0.01,0.38,0.00,17.15,20.54,23.88,14.44,47.49,1031.27,2055.99,3360.41,3056.81,3427.94,600.02,616.87,50.57,0000 0000 0000 0000 000000
2017-10-19 08:14:58,0.00,0.38,0.00,17.16,20.52,23.85,14.45,47.34,1031.27,2055.99,3360.09,3056.91,3427.98,599.87,616.65,50.62,0000 0000 0000 0000 000000
2017-10-19 08:19:59,0.00,0.38,0.00,17.14,20.52,23.84,14.51,47.46,1031.27,2056.00,3360.00,3056.92,3427.99,600.14,616.90,50.67,0000 0000 0000 0000 000000
2017-10-19 08:25:00,-0.00,0.38,0.00,17.13,20.50,23.81,14.48,47.42,1031.28,2056.01,3360.01,3056.82,3427.98,600.14,616.99,50.72,0000 0000 0000 0000 000000
2017-10-19 08:30:01,-0.00,0.38,0.00,17.08,20.49,23.81,14.43,47.41,1031.30,2056.01,3360.02,3056.93,3427.97,600.02,617.04,50.77,0000 0000 0000 0000 000000
2017-10-19 08:35:03,-0.00,0.38,0.00,17.10,20.48,23.83,14.42,47.42,1031.31,2056.04,3360.01,3056.97,3427.99,600.00,616.94,50.82,0000 0000 0000 0000 000000
2017-10-19 08:40:04,0.00,0.38,0.00,17.11,20.47,23.78,14.51,47.39,1031.46,2056.03,3360.00,3056.96,3427.99,600.16,617.02,50.87,0000 0000 0000 0000 000000
2017-10-19 08:45:06,0.00,0.38,0.00,17.05,20.46,23.73,14.50,47.49,1031.48,2056.10,3359.99,3056.97,3427.99,600.11,617.13,50.92,0000 0000 0000 0000 000000
2017-10-19 08:50:07,0.03,0.38,0.00,17.08,20.44,23.79,14.45,47.50,1031.46,2056.30,3359.98,3056.96,3427.99,600.02,617.08,50.97,0000 0000 0000 0000 000000
2017-10-19 08:55:08,0.03,0.39,0.00,17.09,20.44,23.76,14.50,47.47,1031.39,2056.78,3359.98,3056.98,3427.99,600.00,616.92,51.02,0000 0000 0000 0000 000000
2017-10-19 09:00:10,-0.01,0.38,0.00,17.05,20.42,23.74,14.46,47.47,1031.39,2056.74,3359.98,3056.98,3427.99,599.66,616.72,51.07,0000 0000 0000 0000 000000
2017-10-19 09:05:11,0.01,0.38,0.00,17.02,20.42,23.77,14.45,47.49,1031.42,2056.76,3359.99,3056.98,3427.99,600.18,617.32,51.12,0000 0000 0000 0000 000000
2017-10-19 09:10:12,0.01,0.39,0.00,17.01,20.41,23.77,14.50,47.52,1031.37,2056.92,3360.00,3056.99,3427.99,599.89,617.17,51.18,0000 0000 0000 0000 000000
2017-10-19 09:15:13,-0.01,0.39,0.00,17.00,20.39,23.74,14.43,47.48,1031.33,2056.86,3360.01,3056.98,3427.99,600.01,617.12,51.23,0000 0000 0000 0000 000000
2017-10-19 09:20:15,-0.00,0.38,0.00,17.00,20.39,23.73,14.40,47.48,1031.34,2056.75,3360.00,3056.99,3427.99,599.84,617.08,51.28,0000 0000 0000 0000 000000
2017-10-19 09:25:16,0.00,0.39,0.00,16.91,20.37,23.72,14.47,47.48,1031.40,2056.89,3360.00,3056.98,3427.99,599.90,617.29,51.33,0000 0000 0000 0000 000000
2017-10-19 09:30:18,0.01,0.39,0.00,16.96,20.37,23.72,14.42,47.60,1031.43,2056.96,3360.00,3056.99,3427.99,600.04,617.34,51.38,0000 0000 0000 0000 000000
2017-10-19 09:35:19,0.00,0.39,0.00,16.98,20.34,23.71,14.55,47.62,1031.49,2056.95,3360.00,3056.98,3427.99,600.10,617.45,51.43,0000 0000 0000 0000 000000
2017-10-19 09:40:20,0.00,0.39,0.00,16.93,20.34,23.65,14.52,47.55,1031.53,2056.97,3360.00,3056.99,3427.99,600.09,617.49,51.48,0000 0000 0000 0000 000000
2017-10-19 09:45:21,-0.00,0.39,0.00,16.94,20.32,23.62,14.44,47.45,1031.60,2056.98,3359.98,3056.98,3427.99,599.56,616.88,51.53,0000 0000 0000 0000 000000
2017-10-19 09:50:22,0.00,0.39,0.00,16.94,20.31,23.63,14.33,47.67,1031.59,2056.99,3359.97,3056.99,3427.99,600.07,617.60,51.58,0000 0000 0000 0000 000000
2017-10-19 09:55:23,0.00,0.39,0.00,16.90,20.29,23.61,14.50,47.63,1031.67,2056.99,3359.97,3056.99,3427.99,600.17,617.69,51.63,0000 0000 0000 0000 000000
2017-10-19 10:00:24,0.00,0.39,0.00,16.94,20.29,23.64,14.53,47.62,1031.74,2056.99,3359.98,3056.99,3427.99,600.41,617.91,51.68,0000 0000 0000 0000 000000
2017-10-19 10:05:25,0.00,0.39,0.00,16.84,20.27,23.63,14.41,47.60,1031.75,2056.99,3359.98,3056.99,3428.00,599.61,617.33,51.73,0000 0000 0000 0000 000000
2017-10-19 10:10:27,0.00,0.39,0.00,16.86,20.26,23.62,14.56,47.73,1031.75,2056.99,3359.97,3056.99,3428.01,600.47,618.16,51.78,0000 0000 0000 0000 000000
2017-10-19 10:15:28,0.00,0.39,0.00,16.85,20.24,23.60,14.43,47.62,1031.75,2056.99,3359.97,3056.99,3428.00,599.85,617.40,51.83,0000 0000 0000 0000 000000
2017-10-19 10:20:30,0.00,0.39,0.00,16.83,20.23,23.60,14.47,47.67,1031.75,2056.99,3359.97,3057.00,3428.03,600.00,617.73,51.88,0000 0000 0000 0000 000000
2017-10-19 10:25:31,0.00,0.39,0.00,16.85,20.22,23.63,14.43,47.61,1031.75,2057.02,3359.96,3057.01,3428.03,599.79,617.60,51.93,0000 0000 0000 0000 000000
2017-10-19 10:30:33,-0.00,0.39,0.00,16.82,20.21,23.56,14.40,47.63,1031.76,2057.02,3359.97,3057.01,3428.04,599.77,617.56,51.98,0000 0000 0000 0000 000000
2017-10-19 10:35:34,-0.00,0.39,0.00,16.80,20.19,23.54,14.54,47.63,1031.77,2057.01,3359.96,3057.02,3428.02,600.08,617.94,52.04,0000 0000 0000 0000 000000
2017-10-19 10:40:35,0.00,0.39,0.00,16.79,20.19,23.54,14.45,47.65,1031.76,2057.03,3359.93,3057.01,3428.04,599.60,617.45,52.09,0000 0000 0000 0000 000000
2017-10-19 10:45:37,-0.00,0.39,0.00,16.77,20.17,23.55,14.43,47.63,1031.76,2057.05,3359.96,3057.08,3428.05,599.97,617.68,52.14,0000 0000 0000 0000 000000
2017-10-19 10:50:38,0.01,0.39,0.00,16.75,20.17,23.54,14.50,47.69,1031.76,2057.12,3359.97,3057.04,3428.09,600.50,618.53,52.19,0000 0000 0000 0000 000000
2017-10-19 10:55:39,-0.00,0.39,0.00,16.77,20.15,23.55,14.53,47.69,1031.76,2057.12,3359.96,3057.05,3428.09,600.23,618.10,52.24,0000 0000 0000 0000 000000
2017-10-19 11:00:41,0.01,0.39,0.00,16.75,20.14,23.50,14.53,47.74,1031.76,2057.20,3359.97,3057.10,3428.08,599.82,617.79,52.29,0000 0000 0000 0000 000000
2017-10-19 11:05:42,0.01,0.39,0.00,16.71,20.13,23.51,14.49,47.75,1031.76,2057.34,3359.96,3057.17,3428.20,600.11,618.20,52.34,0000 0000 0000 0000 000000
2017-10-19 11:10:43,0.03,0.39,0.00,16.71,20.12,23.48,14.47,47.67,1031.76,2057.66,3359.90,3057.20,3428.18,600.03,618.07,52.39,0000 0000 0000 0000 000000
2017-10-19 11:15:44,-0.00,0.39,0.00,16.70,20.11,23.47,14.48,47.71,1031.77,2057.81,3359.94,3057.51,3428.56,600.08,618.15,52.44,0000 0000 0000 0000 000000
2017-10-19 11:20:45,0.02,0.39,0.00,16.69,20.09,23.48,14.50,47.71,1031.77,2057.94,3359.35,3057.39,3428.87,600.36,618.50,52.49,0000 0000 0000 0000 000000
2017-10-19 11:25:46,0.00,0.39,0.00,16.71,20.09,23.46,14.51,47.63,1031.78,2057.99,3359.07,3057.44,3428.96,600.33,618.45,52.54,0000 0000 0000 0000 000000
2017-10-19 11:30:48,-0.00,0.39,0.00,16.69,20.07,23.39,14.50,47.65,1031.80,2057.99,3359.51,3057.65,3428.84,599.82,617.92,52.59,0000 0000 0000 0000 000000
2017-10-19 11:35:49,-0.01,0.39,0.00,16.68,20.07,23.38,14.43,47.68,1031.79,2057.98,3359.96,3057.90,3428.80,599.99,618.14,52.64,0000 0000 0000 0000 000000
2017-10-19 11:40:50,0.00,0.39,0.00,16.71,20.06,23.32,14.41,47.63,1031.77,2057.98,3359.99,3057.95,3428.85,599.97,618.06,52.69,0000 0000 0000 0000 000000
2017-10-19 11:45:51,0.00,0.39,0.00,16.66,20.04,23.32,14.47,47.77,1031.77,2057.99,3359.95,3057.95,3428.95,600.10,618.20,52.74,0000 0000 0000 0000 000000
2017-10-19 11:50:52,-0.00,0.39,0.00,16.63,20.04,23.33,14.40,47.62,1031.77,2057.98,3359.91,3057.94,3428.85,599.74,618.04,52.79,0000 0000 0000 0000 000000
2017-10-19 11:55:54,0.00,0.39,0.00,16.65,20.02,23.30,14.44,47.68,1031.77,2057.98,3359.99,3057.96,3428.63,599.90,618.11,52.84,0000 0000 0000 0000 000000
2017-10-19 12:00:55,0.00,0.39,0.00,16.64,20.02,23.25,14.51,47.72,1031.77,2057.98,3359.99,3057.97,3428.50,599.90,618.16,52.89,0000 0000 0000 0000 000000
2017-10-19 12:05:57,0.00,0.39,0.00,16.59,20.00,23.24,14.43,47.72,1031.76,2057.98,3360.00,3057.97,3428.38,599.81,618.30,52.94,0000 0000 0000 0000 000000
2017-10-19 12:10:58,0.00,0.39,0.00,16.60,19.99,23.26,14.38,47.58,1031.77,2057.98,3360.00,3057.98,3428.29,599.73,618.11,53.00,0000 0000 0000 0000 000000
2017-10-19 12:15:59,-0.00,0.39,0.00,16.60,19.97,23.24,14.53,47.65,1031.77,2057.99,3360.00,3057.99,3428.38,599.99,618.33,53.05,0000 0000 0000 0000 000000
2017-10-19 12:21:01,0.00,0.39,0.00,16.58,19.97,23.22,14.51,47.90,1031.77,2057.99,3359.97,3057.99,3428.52,600.16,618.50,53.10,0000 0000 0000 0000 000000
2017-10-19 12:26:02,-0.01,0.39,0.00,16.57,19.94,23.24,14.42,47.67,1031.78,2057.99,3359.98,3057.98,3428.55,600.12,618.40,53.15,0000 0000 0000 0000 000000
2017-10-19 12:31:04,0.00,0.39,0.00,16.57,19.94,23.18,14.49,47.69,1031.76,2057.99,3359.96,3057.98,3428.76,599.90,618.30,53.20,0000 0000 0000 0000 000000
2017-10-19 12:36:05,0.00,0.39,0.00,16.55,19.92,23.21,14.53,47.83,1031.76,2057.99,3359.96,3057.99,3428.75,599.91,618.31,53.25,0000 0000 0000 0000 000000
2017-10-19 12:41:06,0.00,0.39,0.00,16.54,19.92,23.25,14.49,47.80,1031.76,2058.00,3359.94,3057.99,3428.88,599.72,618.22,53.30,0000 0000 0000 0000 000000
2017-10-19 12:46:07,0.00,0.39,0.00,16.54,19.89,23.21,14.49,47.60,1031.76,2058.01,3359.84,3057.99,3428.84,599.80,618.17,53.35,0000 0000 0000 0000 000000
2017-10-19 12:51:09,0.00,0.39,0.00,16.52,19.89,23.13,14.47,47.74,1031.76,2058.02,3359.70,3057.99,3428.80,600.08,618.67,53.40,0000 0000 0000 0000 000000
2017-10-19 12:56:10,-0.00,0.39,0.00,16.50,19.87,23.13,14.48,47.63,1031.76,2058.02,3359.64,3057.99,3428.89,600.03,618.49,53.45,0000 0000 0000 0000 000000